This is the latest recevied weather packets stored in our database for station/object YO8SDE-8. If no packets are shown the sender has not sent any weather packets the latest 10 day(s).
| Time | Temp. | Humidity | Pressure | Rain* | Wind** | Luminosity | Snow |
|---|---|---|---|---|---|---|---|
| 1777907761 | 33.89° C | 18% | 1001.9 hPa | 0 mm | - | - | - |
| 1777907461 | 35° C | 17% | 1001.8 hPa | 0 mm | - | - | - |
| 1777907161 | 33.89° C | 19% | 1001.9 hPa | 0 mm | - | - | - |
| 1777906861 | 32.78° C | 19% | 1001.7 hPa | 0 mm | - | - | - |
| 1777906561 | 31.11° C | 20% | 1001.8 hPa | 0 mm | - | - | - |
| 1777906261 | 30.56° C | 19% | 1001.9 hPa | 0 mm | - | - | - |
| 1777905961 | 31.67° C | 19% | 1001.9 hPa | 0 mm | - | - | - |
| 1777905661 | 32.22° C | 19% | 1001.9 hPa | 0 mm | - | - | - |
| 1777905361 | 32.78° C | 18% | 1002 hPa | 0 mm | - | - | - |
| 1777905061 | 32.78° C | 18% | 1002 hPa | 0 mm | - | - | - |
| 1777904761 | 33.33° C | 18% | 1002.1 hPa | 0 mm | - | - | - |
| 1777904461 | 32.78° C | 18% | 1002 hPa | 0 mm | - | - | - |
| 1777904161 | 32.22° C | 19% | 1002 hPa | 0 mm | - | - | - |
| 1777903861 | 31.67° C | 19% | 1002.1 hPa | 0 mm | - | - | - |
| 1777903561 | 32.22° C | 18% | 1002.2 hPa | 0 mm | - | - | - |
| 1777903261 | 32.78° C | 18% | 1002.1 hPa | 0 mm | - | - | - |
| 1777902961 | 32.78° C | 18% | 1002.2 hPa | 0 mm | - | - | - |
| 1777902661 | 33.89° C | 16% | 1002.2 hPa | 0 mm | - | - | - |
| 1777902361 | 34.44° C | 16% | 1002.4 hPa | 0 mm | - | - | - |
| 1777902061 | 35° C | 17% | 1002.5 hPa | 0 mm | - | - | - |
| 1777901761 | 33.89° C | 17% | 1002.6 hPa | 0 mm | - | - | - |
| 1777901461 | 34.44° C | 17% | 1002.6 hPa | 0 mm | - | - | - |
| 1777901161 | 35° C | 17% | 1002.4 hPa | 0 mm | - | - | - |
| 1777900861 | 36.11° C | 17% | 1002.4 hPa | 0 mm | - | - | - |
| 1777900561 | 36.67° C | 17% | 1002.4 hPa | 0 mm | - | - | - |
* Rain latest hour (hover to see other rain measurements)
** Current wind speed in m/s (hover to see current wind gust speed)